Voltar ao catálogo

STARLINK-33586

AtivoComunicaçõesVLEO
NORAD 63073·PAYLOAD·🇺🇸 United States

Lançado Feb 21, 2025 de Cape Canaveral Space Force Station

Loading…

Próximas Passagens (próximas 24 horas)

TLE

AtualizadoSource: CelesTrak SupGP

Época: Sep 15, 2026, 02:32 UTC

1 63073C 25035X   26258.10604167  .00002742  00000+0  99327-4 0  2588
2 63073  42.9993 150.2708 0001360 278.3460 319.3979 15.27574165    15

Acompanhe STARLINK-33586 em tempo real com AllMySat

Download on the App Store